[[{"header":{"parameterUnit":"m.s-1","parameterCategory":1,"la1":30.2991,"la2":30.254,"lo1":-89.0895,"lo2":-89.0444,"dy":0.0017,"dx":0.0017,"nx":28,"ny":28,"refTime":"2025-08-22T03:00:00:Z","depth":0,"parameterNumber":2,"parameterNumberName":"U-component_of_WINDS"},"data":[0,0,0,0,0,0,0,0,0,0,0,0,0,0,0,0,0,0,0,0,0,0,0,0,0,0,0,0,0,0,0,0,0,0,0,0,0,0,0,0,0,0,0,0,0,0,0,0,0,0,0,0,0,0,0,0,0,0,-1.5113,-1.5113,0,-1.5172,-1.5173,-1.5173,-1.5141,-1.514,-1.5138,-1.5137,-1.5196,-1.5199,-1.5202,0,0,0,0,0,0,0,0,0,0,0,0,0,-1.4971,-1.4974,-1.5113,-1.5113,-1.5114,-1.5172,-1.5173,-1.5173,-1.5142,-1.514,-1.5138,-1.5136,-1.5195,-1.5199,-1.5202,0,0,0,0,0,0,0,0,0,0,0,0,0,-1.5032,-1.4975,-1.5113,-1.5105,-1.5105,-1.5172,-1.5173,-1.5174,-1.5142,-1.514,-1.5137,-1.5135,-1.5194,-1.5198,-1.5203,-1.5279,0,0,-1.5217,-1.5219,0,0,0,0,0,0,0,0,-1.5028,-1.5037,-1.5106,-1.5106,-1.5106,-1.5147,-1.5144,-1.5209,-1.5143,-1.5128,-1.5137,-1.5134,-1.5182,-1.5187,-1.5203,-1.5282,-1.5285,-1.5217,-1.522,-1.5222,-1.5223,0,0,0,0,0,0,0,-1.5024,-1.5034,-1.5136,-1.5107,-1.5107,-1.5099,-1.5105,-1.5156,-1.5168,-1.5129,-1.5127,-1.5135,-1.5181,-1.5199,-1.5205,-1.5286,-1.5217,-1.5221,-1.5224,-1.5226,-1.543,-1.5432,0,0,0,0,0,0,-1.502,-1.5031,-1.5134,-1.5138,-1.506,-1.5103,-1.511,-1.5136,-1.5167,-1.5169,-1.5137,-1.5133,-1.5192,-1.5199,-1.5206,-1.5298,-1.5222,-1.5226,-1.5229,-1.5427,-1.543,-1.5433,0,0,0,0,0,0,-1.5017,-1.503,-1.5132,-1.5084,-1.5096,-1.5108,-1.5138,-1.5139,-1.5156,-1.5172,-1.5174,-1.5153,-1.5191,-1.52,-1.5262,-1.5299,-1.5229,-1.5233,-1.5424,-1.5428,-1.5432,-1.5481,0,0,0,0,0,0,-1.5014,-1.5029,-1.5059,-1.5085,-1.5099,-1.5186,-1.514,-1.5141,-1.5165,-1.516,-1.5188,-1.519,-1.519,-1.5255,-1.5266,-1.5305,-1.5236,-1.5421,-1.5426,-1.543,-1.5476,-1.5487,-1.5495,0,0,0,0,0,-1.5009,-1.507,-1.506,-1.5073,-1.5136,-1.5189,-1.5197,-1.5195,-1.5168,-1.5197,-1.5208,-1.519,-1.5294,-1.5261,-1.5274,-1.5314,-1.5418,-1.5424,-1.543,-1.5472,-1.5485,-1.5495,0,0,0,0,0,0,-1.5047,-1.5073,-1.5063,-1.5134,-1.516,-1.5183,-1.522,-1.5208,-1.5241,-1.5236,-1.5231,-1.5238,-1.5302,-1.5314,-1.5278,-1.539,-1.5352,-1.536,-1.5379,-1.5391,-1.54,-1.5396,-1.524,0,0,0,0,0,-1.5064,-1.5106,-1.5126,-1.5187,-1.52,-1.5208,-1.5231,-1.5228,-1.5253,-1.5264,-1.5278,-1.5304,-1.5342,-1.5367,-1.5403,-1.5478,-1.5483,-1.5512,-1.5521,-1.5529,-1.5536,-1.5576,-1.5589,-1.5453,-1.5453,-1.5453,0,0,-1.51,-1.5119,-1.5145,-1.5195,-1.5214,-1.5257,-1.5217,-1.5264,-1.5295,-1.527,-1.533,-1.5341,-1.5369,-1.5438,-1.5468,-1.545,-1.5575,-1.5537,-1.5543,-1.5546,-1.5584,-1.5597,-1.5608,-1.5457,-1.5456,-1.5455,0,0,-1.5186,-1.5205,-1.5258,-1.5278,-1.5307,-1.5312,-1.5325,-1.5351,-1.5358,-1.5417,-1.54,-1.5436,-1.5503,-1.5523,-1.5542,-1.5636,-1.5621,-1.5648,-1.5697,-1.5736,-1.5747,-1.5757,-1.579,-1.5802,-1.5656,-1.5656,-1.5656,0,-1.5226,-1.5289,-1.5286,-1.5334,-1.5357,-1.5337,-1.5391,-1.541,-1.545,-1.5466,-1.5444,-1.5527,-1.5544,-1.5617,-1.564,-1.5656,-1.567,-1.5645,-1.5746,-1.5755,-1.5764,-1.5796,-1.5808,-1.5659,-1.5659,-1.5658,-1.5658,0,-1.5337,-1.5381,-1.542,-1.546,-1.5487,-1.5537,-1.5542,-1.5569,-1.5563,-1.557,-1.5631,-1.5651,-1.5691,-1.5708,-1.5702,-1.578,-1.5767,-1.5746,-1.5708,-1.578,-1.581,-1.5822,-1.5663,-1.5662,-1.5661,-1.5661,0,0,-1.5449,-1.5486,-1.5501,-1.5518,-1.555,-1.5584,-1.5633,-1.5672,-1.5696,-1.5724,-1.5765,-1.5821,-1.5802,-1.5824,-1.582,-1.5855,-1.5927,-1.5829,-1.583,-1.5846,-1.6014,-1.6029,-1.6043,-1.5917,-1.592,-1.5922,-1.6011,0,-1.5537,-1.5624,-1.5623,-1.5703,-1.5743,-1.5726,-1.5768,-1.5792,-1.58,-1.5835,-1.5844,-1.5884,-1.5855,-1.5868,-1.5901,-1.5912,-1.5961,-1.5905,-1.5955,-1.5957,-1.5948,-1.6059,-1.6075,-1.6159,-1.6023,-1.6025,-1.6026,0,-1.5651,-1.5683,-1.5768,-1.5793,-1.581,-1.5849,-1.5885,-1.5919,-1.5945,-1.5948,-1.5973,-1.5964,-1.6013,-1.5974,-1.6042,-1.6004,-1.6024,-1.6032,-1.6036,-1.604,-1.5995,-1.6065,-1.6185,-1.6198,-1.6044,-1.6043,-1.6041,0,-1.5724,-1.5789,-1.5847,-1.5863,-1.5894,-1.5922,-1.5936,-1.596,-1.5983,-1.6015,-1.603,-1.6066,-1.6086,-1.6114,-1.6115,-1.6087,-1.6184,-1.6145,-1.6188,-1.6188,-1.6209,-1.6207,-1.6333,-1.6223,-1.6222,-1.6222,-1.6222,0,-1.5822,-1.5874,-1.5881,-1.5917,-1.5975,-1.5973,-1.603,-1.6041,-1.6063,-1.61,-1.6087,-1.6122,-1.6122,-1.6158,-1.6159,-1.6215,-1.6224,-1.6228,-1.6227,-1.6229,-1.6228,-1.6242,-1.6236,-1.6225,-1.6225,-1.6224,-1.6223,0,-1.5913,-1.592,-1.5983,-1.6007,-1.6014,-1.6056,-1.6076,-1.611,-1.6117,-1.6165,-1.6176,-1.6186,-1.6228,-1.6232,-1.628,-1.6281,-1.6348,-1.6342,-1.634,-1.6339,-1.6381,-1.6377,-1.652,-1.6538,-1.6416,-1.6417,-1.6418,0,-1.5975,-1.6015,-1.6044,-1.6069,-1.6084,-1.6124,-1.6148,-1.6148,-1.6173,-1.6206,-1.6236,-1.6277,-1.6309,-1.6376,-1.6388,-1.6424,-1.6418,-1.6466,-1.6424,-1.6424,-1.6419,-1.6416,-1.642,-1.6474,-1.6475,-1.6476,-1.6477,0,-1.6085,-1.6086,-1.6122,-1.6159,-1.6188,-1.6217,-1.6244,-1.6265,-1.6268,-1.6297,-1.634,-1.6365,-1.6414,-1.6454,-1.649,-1.6504,-1.6491,-1.6491,-1.6502,-1.6504,-1.6501,-1.6503,-1.6362,-1.6487,-1.6486,-1.6486,-1.6485,-1.6485,-1.6163,-1.6198,-1.6223,-1.6263,-1.6284,-1.6309,-1.6343,-1.6354,-1.6389,-1.643,-1.6427,-1.6474,-1.6499,-1.6546,-1.6563,-1.6599,-1.6583,-1.66,-1.6605,-1.6609,-1.6613,-1.6496,-1.6606,-1.6605,-1.6605,-1.6605,-1.6605,0,-1.6272,-1.6287,-1.6324,-1.6363,-1.6394,-1.638,-1.6409,-1.6436,-1.6478,-1.6502,-1.6534,-1.6583,-1.6622,-1.6637,-1.6674,-1.67,-1.6695,-1.671,-1.6708,-1.6711,-1.6625,-1.6611,-1.6714,-1.6714,-1.6714,-1.6714,-1.6714,-1.6714,-1.6332,-1.6389,-1.6394,-1.6461,-1.6476,-1.6522,-1.654,-1.6563,-1.6583,-1.6638,-1.667,-1.668,-1.67,-1.6739,-1.6774,-1.6777,-1.6791,-1.6809,-1.6809,-1.6729,-1.6718,-1.6707,-1.6694,-1.6812,-1.6812,-1.6892,-1.6893,-1.6894]},{"header":{"parameterUnit":"m.s-1","parameterCategory":1,"la1":30.2991,"la2":30.254,"lo1":-89.0895,"lo2":-89.0444,"dy":0.0017,"dx":0.0017,"nx":28,"ny":28,"refTime":"2025-08-22T03:00:00:Z","depth":0,"parameterNumber":3,"parameterNumberName":"V-component_of_WINDS"},"data":[0,0,0,0,0,0,0,0,0,0,0,0,0,0,0,0,0,0,0,0,0,0,0,0,0,0,0,0,0,0,0,0,0,0,0,0,0,0,0,0,0,0,0,0,0,0,0,0,0,0,0,0,0,0,0,0,0,0,-0.75,-0.7499,0,-0.7393,-0.7392,-0.7391,-0.7365,-0.7366,-0.7367,-0.7367,-0.725,-0.7247,-0.7243,0,0,0,0,0,0,0,0,0,0,0,0,0,-0.7672,-0.7669,-0.75,-0.7499,-0.7497,-0.7393,-0.7392,-0.739,-0.7365,-0.7366,-0.7367,-0.7368,-0.7251,-0.7247,-0.7242,0,0,0,0,0,0,0,0,0,0,0,0,0,-0.7585,-0.7668,-0.75,-0.7472,-0.7469,-0.7394,-0.7392,-0.739,-0.7365,-0.7366,-0.7367,-0.7368,-0.7253,-0.7247,-0.7242,-0.7184,0,0,-0.7224,-0.7222,0,0,0,0,0,0,0,0,-0.759,-0.7578,-0.7478,-0.7474,-0.747,-0.7394,-0.741,-0.7321,-0.7365,-0.7404,-0.7367,-0.7369,-0.7297,-0.7287,-0.7265,-0.7179,-0.7174,-0.7224,-0.722,-0.7218,-0.7216,0,0,0,0,0,0,0,-0.7596,-0.7583,-0.7458,-0.7476,-0.7472,-0.7462,-0.7451,-0.7393,-0.7345,-0.7401,-0.7399,-0.7387,-0.7295,-0.727,-0.7262,-0.7172,-0.7224,-0.7219,-0.7215,-0.7213,-0.7029,-0.7028,0,0,0,0,0,0,-0.7608,-0.7588,-0.7461,-0.7454,-0.7534,-0.7458,-0.7446,-0.7417,-0.7346,-0.7336,-0.7386,-0.7386,-0.7279,-0.7268,-0.7257,-0.7183,-0.7218,-0.7213,-0.7209,-0.703,-0.7029,-0.7027,0,0,0,0,0,0,-0.7612,-0.7597,-0.7465,-0.7521,-0.7503,-0.7454,-0.7422,-0.7414,-0.739,-0.7335,-0.7325,-0.7371,-0.728,-0.7266,-0.7202,-0.7179,-0.721,-0.7205,-0.7032,-0.703,-0.7028,-0.7035,0,0,0,0,0,0,-0.7617,-0.7598,-0.7579,-0.752,-0.75,-0.7415,-0.7421,-0.7412,-0.7381,-0.738,-0.7318,-0.7308,-0.728,-0.7211,-0.7197,-0.7171,-0.72,-0.7034,-0.7031,-0.7028,-0.7037,-0.7033,-0.7031,0,0,0,0,0,-0.7623,-0.7584,-0.7578,-0.7563,-0.7475,-0.7414,-0.7402,-0.7372,-0.738,-0.7357,-0.7321,-0.731,-0.7184,-0.7205,-0.7188,-0.7161,-0.7035,-0.7032,-0.7029,-0.7038,-0.7034,-0.7031,0,0,0,0,0,0,-0.7639,-0.7576,-0.7568,-0.751,-0.7468,-0.741,-0.7381,-0.7369,-0.7322,-0.7323,-0.7285,-0.7271,-0.7209,-0.7179,-0.7203,-0.7099,-0.7109,-0.7102,-0.7122,-0.7118,-0.7115,-0.7123,-0.7196,0,0,0,0,0,-0.7636,-0.7595,-0.7541,-0.7494,-0.7474,-0.7431,-0.7403,-0.7384,-0.7337,-0.7318,-0.7278,-0.7231,-0.718,-0.7147,-0.7097,-0.7032,-0.7016,-0.7005,-0.7002,-0.6999,-0.6994,-0.6953,-0.6946,-0.7016,-0.7016,-0.7016,0,0,-0.7629,-0.759,-0.7565,-0.7496,-0.7461,-0.7416,-0.7416,-0.7369,-0.7333,-0.731,-0.7248,-0.7216,-0.7161,-0.7096,-0.7065,-0.7068,-0.697,-0.6995,-0.6994,-0.6989,-0.6949,-0.6942,-0.6936,-0.7014,-0.7014,-0.7015,0,0,-0.7593,-0.756,-0.7517,-0.7481,-0.7429,-0.74,-0.7389,-0.7332,-0.7311,-0.7249,-0.7229,-0.7185,-0.7099,-0.7059,-0.7028,-0.6973,-0.696,-0.6958,-0.6941,-0.6902,-0.6896,-0.6891,-0.6869,-0.6861,-0.6952,-0.6952,-0.6952,0,-0.759,-0.7524,-0.7495,-0.7448,-0.7416,-0.7395,-0.7348,-0.7314,-0.7247,-0.7224,-0.7229,-0.7119,-0.708,-0.7004,-0.699,-0.6966,-0.695,-0.6964,-0.69,-0.6894,-0.6889,-0.6867,-0.6859,-0.6952,-0.6952,-0.6952,-0.6952,0,-0.7522,-0.7475,-0.7446,-0.7383,-0.7348,-0.7301,-0.7262,-0.7229,-0.7212,-0.7182,-0.7116,-0.7068,-0.7007,-0.6987,-0.697,-0.6907,-0.691,-0.6908,-0.6917,-0.6883,-0.6861,-0.6853,-0.6952,-0.6952,-0.6952,-0.6952,0,0,-0.7494,-0.7415,-0.7404,-0.7374,-0.7313,-0.7274,-0.7224,-0.7167,-0.7138,-0.7091,-0.7046,-0.6973,-0.6969,-0.6934,-0.691,-0.6876,-0.6832,-0.6878,-0.6876,-0.6869,-0.6755,-0.6756,-0.6747,-0.6823,-0.6821,-0.682,-0.6759,0,-0.7449,-0.7363,-0.7334,-0.726,-0.7215,-0.7192,-0.7148,-0.7104,-0.7073,-0.7027,-0.6992,-0.694,-0.6941,-0.6919,-0.6884,-0.6845,-0.6808,-0.6849,-0.6777,-0.6774,-0.679,-0.6736,-0.6738,-0.6683,-0.6751,-0.6749,-0.6748,0,-0.7385,-0.7339,-0.7262,-0.7203,-0.7183,-0.7145,-0.7087,-0.7045,-0.6992,-0.6972,-0.6931,-0.6909,-0.6852,-0.6865,-0.6783,-0.6811,-0.6779,-0.6755,-0.6752,-0.6743,-0.6759,-0.6724,-0.6665,-0.6656,-0.6735,-0.6736,-0.6737,0,-0.737,-0.7288,-0.723,-0.7205,-0.7136,-0.7109,-0.7078,-0.7027,-0.6993,-0.6941,-0.6918,-0.686,-0.6828,-0.6781,-0.6743,-0.6757,-0.6663,-0.6674,-0.6642,-0.6643,-0.6623,-0.6624,-0.6556,-0.6605,-0.6605,-0.6605,-0.6606,0,-0.7322,-0.7275,-0.7222,-0.7187,-0.7132,-0.7097,-0.7042,-0.701,-0.6964,-0.6918,-0.6894,-0.6852,-0.6805,-0.6755,-0.6724,-0.6659,-0.6645,-0.6624,-0.6616,-0.6626,-0.6628,-0.6603,-0.6605,-0.6603,-0.6604,-0.6604,-0.6605,0,-0.7296,-0.7259,-0.7194,-0.7134,-0.7117,-0.7079,-0.7026,-0.6988,-0.6956,-0.6898,-0.6883,-0.6831,-0.677,-0.6728,-0.665,-0.6629,-0.6558,-0.6551,-0.6576,-0.6572,-0.6541,-0.6544,-0.6454,-0.6439,-0.65,-0.65,-0.6499,0,-0.7267,-0.723,-0.7166,-0.7135,-0.7105,-0.7055,-0.702,-0.6983,-0.6947,-0.6882,-0.6851,-0.6789,-0.6738,-0.6641,-0.6594,-0.6533,-0.6523,-0.6496,-0.6514,-0.6523,-0.652,-0.6522,-0.6516,-0.6493,-0.6492,-0.6492,-0.6492,0,-0.7219,-0.7202,-0.7154,-0.7099,-0.7058,-0.7012,-0.6966,-0.6941,-0.6894,-0.6854,-0.6793,-0.6753,-0.6673,-0.661,-0.6544,-0.6508,-0.649,-0.6487,-0.6475,-0.6484,-0.6499,-0.6487,-0.6567,-0.6489,-0.6489,-0.6489,-0.6489,-0.6489,-0.7188,-0.7154,-0.7102,-0.7049,-0.701,-0.6966,-0.6927,-0.689,-0.6839,-0.6773,-0.6753,-0.6688,-0.6631,-0.6541,-0.6504,-0.645,-0.6451,-0.6436,-0.6432,-0.6428,-0.6427,-0.6509,-0.6438,-0.6438,-0.6438,-0.6438,-0.6438,0,-0.7137,-0.7102,-0.7054,-0.699,-0.6946,-0.6936,-0.6883,-0.6846,-0.6791,-0.6741,-0.669,-0.6618,-0.6556,-0.6504,-0.6439,-0.6405,-0.6395,-0.6389,-0.639,-0.6381,-0.6431,-0.6446,-0.6398,-0.6398,-0.6398,-0.6398,-0.6398,-0.6398,-0.7105,-0.7045,-0.7021,-0.6939,-0.6904,-0.6843,-0.6813,-0.677,-0.673,-0.6651,-0.6601,-0.6568,-0.6515,-0.6445,-0.6387,-0.6372,-0.6348,-0.6344,-0.6327,-0.6374,-0.6378,-0.6383,-0.6397,-0.6339,-0.6339,-0.6282,-0.6282,-0.6281]}]]